Погода в Печках

Россия / Архангельская область     64°07′44″N   41°56′38″E
темп.,
°C
ветер,
м/с
пор.,
м/с
влажн.,
%
обл.,
%
осадки,
мм/ч
давл.,
гПа
погр.,
м
26 февраля, пт
пт2600:00−15ю41191100 0.0 1008461
03:00−15ююв41194100 0.4 1006439
06:00−15ююв41195100 0.6 1004454
09:00−15ююв4994100 1.1 1002422
12:00−13ююв4893100 0.3 1002413
15:00−12ююв3794100 0.8 1002429
18:00−13ююв3795100 0.4 1002423
21:00−14ююв3795100 0.6 1004392
27 февраля, сб
сб2700:00−16ююв269694 0.2 1004272
03:00−16ююв259689 0.4 1007246
06:00−17ююв249791 0.2 1007128
09:00−17ю139689 0.3 1009175
12:00−14ююз129295 0.2 1009282
15:00−12юз139497 0.4 1010269
18:00−13юз129793 0.3 101138
21:00−12зюз129792 0.7 101243
28 февраля, вс
вс2800:00−12з129899 0.1 101221
03:00−11з129897 0.1 101321
06:00−10зсз2397100 0.1 101282
09:00−10зсз249897 0.2 1013117
12:00−6з249698 0.0 1014268
15:00−5зюз249698 0.1 1014328
18:00−5юз3596100 0.1 1013335
21:00−6юз2797100 0.1 1013288
1 марта, пн
пн100:00−6юз3796100 0.7 1012319
03:00−6юз279795 0.9 1012208
06:00−6юз269786 0.1 1010175
09:00−2юз399693 0.1 1008410
12:00+1юз4999100 0.3 1005433
15:000зюз41098100 2.2 1002633
18:00+1з51198100 1.6 1000760
21:00+1зсз41194100 1.9 1001909
2 марта, вт
вт200:000з4109787 0.2 1001617
03:00−1зсз5119189 0.3 1001765
06:00−2зсз51194100 0.3 1000656
09:00−3з4119396 0.4 1000695
12:00−1зсз5993100 0.1 1001786
15:00−1зсз4991100 0.3 1001856
18:00−3зсз4119397 0.1 1001686
21:00−4зсз399697 0.2 1001390